Time,TemperatureF,DewpointF,PressureIn,WindDirection,WindDirectionDegrees,WindSpeedMPH,WindSpeedGustMPH,Humidity,HourlyPrecipIn,Conditions,Clouds,dailyrainin,SoftwareType,DateUTC
2013-04-07 00:00:00,31.5,8.8,30.26,West,264,1.0,2.0,38,0.00,,---,0.00,VWS V14.01,2013-04-07 04:00:00,
2013-04-07 00:05:00,31.3,8.6,30.26,West,264,0.0,3.0,38,0.00,,---,0.00,VWS V14.01,2013-04-07 04:05:00,
2013-04-07 00:10:00,31.2,8.6,30.26,West,264,2.0,3.0,38,0.00,,---,0.00,VWS V14.01,2013-04-07 04:10:00,
2013-04-07 00:15:00,31.0,8.4,30.26,West,264,0.0,3.0,38,0.00,,---,0.00,VWS V14.01,2013-04-07 04:15:00,
2013-04-07 00:20:00,30.9,8.3,30.26,West,264,0.0,3.0,38,0.00,,---,0.00,VWS V14.01,2013-04-07 04:20:00,
2013-04-07 00:25:00,30.7,8.1,30.26,West,264,0.0,3.0,38,0.00,,---,0.00,VWS V14.01,2013-04-07 04:25:00,
2013-04-07 00:30:00,30.7,8.1,30.26,West,264,1.0,3.0,38,0.00,,---,0.00,VWS V14.01,2013-04-07 04:30:00,
2013-04-07 00:35:00,30.7,8.1,30.26,West,264,1.0,2.0,38,0.00,,---,0.00,VWS V14.01,2013-04-07 04:35:00,
2013-04-07 00:40:00,30.7,8.1,30.26,West,264,0.0,2.0,38,0.00,,---,0.00,VWS V14.01,2013-04-07 04:40:00,
2013-04-07 00:45:00,30.4,7.8,30.25,West,264,0.0,2.0,38,0.00,,---,0.00,VWS V14.01,2013-04-07 04:45:00,
2013-04-07 00:50:00,30.3,7.8,30.25,West,264,0.0,2.0,38,0.00,,---,0.00,VWS V14.01,2013-04-07 04:50:00,
2013-04-07 00:55:00,30.1,7.6,30.25,West,264,0.0,2.0,38,0.00,,---,0.00,VWS V14.01,2013-04-07 04:55:00,
2013-04-07 01:00:00,30.0,7.5,30.25,West,264,0.0,2.0,38,0.00,,---,0.00,VWS V14.01,2013-04-07 05:00:00,
2013-04-07 01:05:00,29.8,7.3,30.25,West,264,0.0,0.0,38,0.00,,---,0.00,VWS V14.01,2013-04-07 05:05:00,
2013-04-07 01:10:00,29.7,7.2,30.25,West,264,0.0,0.0,38,0.00,,---,0.00,VWS V14.01,2013-04-07 05:10:00,
2013-04-07 01:15:00,29.8,7.3,30.25,West,264,0.0,1.0,38,0.00,,---,0.00,VWS V14.01,2013-04-07 05:15:00,
2013-04-07 01:20:00,29.8,7.3,30.25,West,264,0.0,1.0,38,0.00,,---,0.00,VWS V14.01,2013-04-07 05:20:00,
2013-04-07 01:25:00,29.5,7.0,30.25,West,264,0.0,1.0,38,0.00,,---,0.00,VWS V14.01,2013-04-07 05:25:00,
2013-04-07 01:30:00,29.4,6.9,30.25,West,264,0.0,1.0,38,0.00,,---,0.00,VWS V14.01,2013-04-07 05:30:00,
2013-04-07 01:35:00,29.4,6.9,30.25,West,264,0.0,0.0,38,0.00,,---,0.00,VWS V14.01,2013-04-07 05:35:00,
2013-04-07 01:40:00,29.4,6.9,30.25,West,264,1.0,2.0,38,0.00,,---,0.00,VWS V14.01,2013-04-07 05:40:00,
2013-04-07 01:46:00,29.7,7.2,30.24,West,264,0.0,2.0,38,0.00,,---,0.00,VWS V14.01,2013-04-07 05:46:00,
2013-04-07 01:51:00,29.7,7.2,30.24,West,264,0.0,2.0,38,0.00,,---,0.00,VWS V14.01,2013-04-07 05:51:00,
2013-04-07 01:56:00,29.5,7.0,30.24,West,264,0.0,2.0,38,0.00,,---,0.00,VWS V14.01,2013-04-07 05:56:00,
2013-04-07 02:01:00,29.4,6.9,30.24,West,264,0.0,2.0,38,0.00,,---,0.00,VWS V14.01,2013-04-07 06:01:00,
2013-04-07 02:06:00,29.3,6.9,30.24,West,264,0.0,0.0,38,0.00,,---,0.00,VWS V14.01,2013-04-07 06:06:00,
2013-04-07 02:11:00,29.1,6.7,30.24,West,264,0.0,0.0,38,0.00,,---,0.00,VWS V14.01,2013-04-07 06:11:00,
2013-04-07 02:16:00,29.1,6.7,30.23,West,264,0.0,0.0,38,0.00,,---,0.00,VWS V14.01,2013-04-07 06:16:00,
2013-04-07 02:21:00,29.0,6.6,30.23,West,264,0.0,0.0,38,0.00,,---,0.00,VWS V14.01,2013-04-07 06:21:00,
2013-04-07 02:26:00,29.0,6.6,30.23,West,264,0.0,0.0,38,0.00,,---,0.00,VWS V14.01,2013-04-07 06:26:00,
2013-04-07 02:31:00,29.0,7.2,30.23,West,264,0.0,1.0,39,0.00,,---,0.00,VWS V14.01,2013-04-07 06:31:00,
2013-04-07 02:36:00,29.0,7.2,30.23,West,264,0.0,2.0,39,0.00,,---,0.00,VWS V14.01,2013-04-07 06:36:00,
2013-04-07 02:41:00,29.0,7.2,30.23,West,264,0.0,2.0,39,0.00,,---,0.00,VWS V14.01,2013-04-07 06:41:00,
2013-04-07 02:46:00,29.0,7.2,30.23,West,264,0.0,2.0,39,0.00,,---,0.00,VWS V14.01,2013-04-07 06:46:00,
2013-04-07 02:51:00,28.8,7.0,30.23,West,264,0.0,2.0,39,0.00,,---,0.00,VWS V14.01,2013-04-07 06:51:00,
2013-04-07 02:56:00,28.8,7.0,30.23,West,264,0.0,2.0,39,0.00,,---,0.00,VWS V14.01,2013-04-07 06:56:00,
2013-04-07 03:00:00,29.4,6.9,30.24,West,264,0.0,2.0,38,0.00,,---,0.00,VWS V14.01,2013-04-07 07:00:00,
2013-04-07 03:01:00,28.8,7.0,30.23,West,264,0.0,2.0,39,0.00,,---,0.00,VWS V14.01,2013-04-07 07:01:00,
2013-04-07 03:06:00,28.8,7.0,30.23,West,264,0.0,0.0,39,0.00,,---,0.00,VWS V14.01,2013-04-07 07:06:00,
2013-04-07 03:11:00,28.8,7.0,30.23,West,264,0.0,0.0,39,0.00,,---,0.00,VWS V14.01,2013-04-07 07:11:00,
2013-04-07 03:16:00,28.7,6.9,30.22,West,264,0.0,0.0,39,0.00,,---,0.00,VWS V14.01,2013-04-07 07:16:00,
2013-04-07 03:21:00,28.7,6.9,30.22,West,264,0.0,1.0,39,0.00,,---,0.00,VWS V14.01,2013-04-07 07:21:00,
2013-04-07 03:26:00,28.7,6.9,30.22,West,264,0.0,1.0,39,0.00,,---,0.00,VWS V14.01,2013-04-07 07:26:00,
2013-04-07 03:30:00,29.0,7.2,30.23,West,264,0.0,1.0,39,0.00,,---,0.00,VWS V14.01,2013-04-07 07:30:00,
2013-04-07 03:31:00,28.7,6.9,30.22,West,264,0.0,1.0,39,0.00,,---,0.00,VWS V14.01,2013-04-07 07:31:00,
2013-04-07 03:36:00,28.5,6.7,30.22,West,264,1.0,1.0,39,0.00,,---,0.00,VWS V14.01,2013-04-07 07:36:00,
2013-04-07 03:41:00,28.5,6.7,30.22,West,264,0.0,2.0,39,0.00,,---,0.00,VWS V14.01,2013-04-07 07:41:00,
2013-04-07 03:46:00,28.4,6.6,30.22,West,264,0.0,2.0,39,0.00,,---,0.00,VWS V14.01,2013-04-07 07:46:00,
2013-04-07 03:51:00,28.4,6.6,30.22,West,264,0.0,2.0,39,0.00,,---,0.00,VWS V14.01,2013-04-07 07:51:00,
2013-04-07 03:56:00,28.4,6.6,30.22,West,264,0.0,2.0,39,0.00,,---,0.00,VWS V14.01,2013-04-07 07:56:00,
2013-04-07 04:00:00,28.8,7.0,30.23,West,264,0.0,2.0,39,0.00,,---,0.00,VWS V14.01,2013-04-07 08:00:00,
2013-04-07 04:01:00,28.2,6.4,30.22,West,264,0.0,2.0,39,0.00,,---,0.00,VWS V14.01,2013-04-07 08:01:00,
2013-04-07 04:06:00,28.1,6.3,30.22,West,264,0.0,0.0,39,0.00,,---,0.00,VWS V14.01,2013-04-07 08:06:00,
2013-04-07 04:11:00,27.9,6.2,30.22,West,264,0.0,0.0,39,0.00,,---,0.00,VWS V14.01,2013-04-07 08:11:00,
2013-04-07 04:16:00,28.1,6.3,30.22,West,264,0.0,0.0,39,0.00,,---,0.00,VWS V14.01,2013-04-07 08:16:00,
2013-04-07 04:21:00,28.1,6.3,30.22,West,264,0.0,0.0,39,0.00,,---,0.00,VWS V14.01,2013-04-07 08:21:00,
2013-04-07 04:27:00,27.9,6.2,30.22,West,264,0.0,0.0,39,0.00,,---,0.00,VWS V14.01,2013-04-07 08:27:00,
2013-04-07 04:30:00,28.7,6.9,30.22,West,264,0.0,1.0,39,0.00,,---,0.00,VWS V14.01,2013-04-07 08:30:00,
2013-04-07 04:32:00,27.9,6.2,30.22,West,264,0.0,0.0,39,0.00,,---,0.00,VWS V14.01,2013-04-07 08:32:00,
2013-04-07 04:37:00,27.9,6.2,30.22,West,264,0.0,0.0,39,0.00,,---,0.00,VWS V14.01,2013-04-07 08:37:00,
2013-04-07 04:42:00,27.9,6.2,30.22,West,264,0.0,0.0,39,0.00,,---,0.00,VWS V14.01,2013-04-07 08:42:00,
2013-04-07 04:47:00,27.8,6.1,30.22,West,264,0.0,0.0,39,0.00,,---,0.00,VWS V14.01,2013-04-07 08:47:00,
2013-04-07 04:52:00,27.8,6.1,30.22,West,264,0.0,0.0,39,0.00,,---,0.00,VWS V14.01,2013-04-07 08:52:00,
2013-04-07 04:57:00,27.6,5.9,30.22,West,264,0.0,0.0,39,0.00,,---,0.00,VWS V14.01,2013-04-07 08:57:00,
2013-04-07 05:00:00,28.2,6.4,30.22,West,264,0.0,2.0,39,0.00,,---,0.00,VWS V14.01,2013-04-07 09:00:00,
2013-04-07 05:02:00,27.5,5.8,30.23,West,264,0.0,0.0,39,0.00,,---,0.00,VWS V14.01,2013-04-07 09:02:00,
2013-04-07 05:07:00,27.3,5.6,30.23,West,264,0.0,0.0,39,0.00,,---,0.00,VWS V14.01,2013-04-07 09:07:00,
2013-04-07 05:12:00,27.3,5.6,30.23,West,264,0.0,0.0,39,0.00,,---,0.00,VWS V14.01,2013-04-07 09:12:00,
2013-04-07 05:17:00,27.2,5.5,30.23,West,264,0.0,0.0,39,0.00,,---,0.00,VWS V14.01,2013-04-07 09:17:00,
2013-04-07 05:22:00,27.2,5.5,30.23,West,264,0.0,0.0,39,0.00,,---,0.00,VWS V14.01,2013-04-07 09:22:00,
2013-04-07 05:27:00,27.2,5.5,30.23,West,264,0.0,2.0,39,0.00,,---,0.00,VWS V14.01,2013-04-07 09:27:00,
2013-04-07 05:30:00,27.9,6.2,30.22,West,264,0.0,0.0,39,0.00,,---,0.00,VWS V14.01,2013-04-07 09:30:00,
2013-04-07 05:32:00,27.2,5.5,30.23,West,264,2.0,3.0,39,0.00,,---,0.00,VWS V14.01,2013-04-07 09:32:00,
2013-04-07 05:37:00,27.2,5.5,30.23,West,264,0.0,3.0,39,0.00,,---,0.00,VWS V14.01,2013-04-07 09:37:00,
2013-04-07 05:42:00,27.2,5.5,30.23,West,264,0.0,3.0,39,0.00,,---,0.00,VWS V14.01,2013-04-07 09:42:00,
2013-04-07 05:47:00,27.2,5.5,30.23,West,264,0.0,3.0,39,0.00,,---,0.00,VWS V14.01,2013-04-07 09:47:00,
2013-04-07 05:52:00,27.0,5.3,30.23,West,264,0.0,3.0,39,0.00,,---,0.00,VWS V14.01,2013-04-07 09:52:00,
2013-04-07 05:57:00,27.2,5.5,30.23,West,264,0.0,3.0,39,0.00,,---,0.00,VWS V14.01,2013-04-07 09:57:00,
2013-04-07 06:00:00,27.5,5.8,30.23,West,264,0.0,0.0,39,0.00,,---,0.00,VWS V14.01,2013-04-07 10:00:00,
2013-04-07 06:02:00,27.2,5.5,30.24,West,264,1.0,2.0,39,0.00,,---,0.00,VWS V14.01,2013-04-07 10:02:00,
2013-04-07 06:07:00,27.2,5.5,30.24,West,264,0.0,2.0,39,0.00,,---,0.00,VWS V14.01,2013-04-07 10:07:00,
2013-04-07 06:12:00,27.2,5.5,30.24,West,264,0.0,2.0,39,0.00,,---,0.00,VWS V14.01,2013-04-07 10:12:00,
2013-04-07 06:18:00,27.2,5.5,30.24,West,264,0.0,2.0,39,0.00,,---,0.00,VWS V14.01,2013-04-07 10:18:00,
2013-04-07 06:22:00,27.2,5.5,30.24,West,264,0.0,2.0,39,0.00,,---,0.00,VWS V14.01,2013-04-07 10:22:00,
2013-04-07 06:28:00,27.3,5.6,30.24,West,264,0.0,2.0,39,0.00,,---,0.00,VWS V14.01,2013-04-07 10:28:00,
2013-04-07 06:30:00,27.0,5.3,30.23,West,264,1.0,2.0,39,0.00,,---,0.00,VWS V14.01,2013-04-07 10:30:00,
2013-04-07 06:33:00,27.3,5.6,30.24,West,264,0.0,0.0,39,0.00,,---,0.00,VWS V14.01,2013-04-07 10:33:00,
2013-04-07 06:38:00,27.5,5.8,30.24,West,264,0.0,0.0,39,0.00,,---,0.00,VWS V14.01,2013-04-07 10:38:00,
2013-04-07 06:43:00,27.5,5.8,30.24,West,264,0.0,0.0,39,0.00,,---,0.00,VWS V14.01,2013-04-07 10:43:00,
2013-04-07 06:48:00,27.6,5.9,30.25,West,264,0.0,0.0,39,0.00,,---,0.00,VWS V14.01,2013-04-07 10:48:00,
2013-04-07 06:53:00,27.8,6.1,30.25,West,264,0.0,0.0,39,0.00,,---,0.00,VWS V14.01,2013-04-07 10:53:00,
2013-04-07 06:58:00,27.9,6.2,30.25,West,264,0.0,0.0,39,0.00,,---,0.00,VWS V14.01,2013-04-07 10:58:00,
2013-04-07 07:00:00,27.2,5.5,30.24,West,264,1.0,3.0,39,0.00,,---,0.00,VWS V14.01,2013-04-07 11:00:00,
2013-04-07 07:03:00,28.2,6.4,30.25,West,264,0.0,0.0,39,0.00,,---,0.00,VWS V14.01,2013-04-07 11:03:00,
2013-04-07 07:08:00,28.4,6.6,30.25,West,264,0.0,0.0,39,0.00,,---,0.00,VWS V14.01,2013-04-07 11:08:00,
2013-04-07 07:13:00,28.7,6.9,30.25,West,264,0.0,0.0,39,0.00,,---,0.00,VWS V14.01,2013-04-07 11:13:00,
2013-04-07 07:18:00,28.8,7.0,30.25,West,264,0.0,0.0,39,0.00,,---,0.00,VWS V14.01,2013-04-07 11:18:00,
2013-04-07 07:23:00,29.1,7.2,30.25,West,264,0.0,0.0,39,0.00,,---,0.00,VWS V14.01,2013-04-07 11:23:00,
2013-04-07 07:28:00,29.4,7.5,30.25,West,264,0.0,0.0,39,0.00,,---,0.00,VWS V14.01,2013-04-07 11:28:00,
2013-04-07 07:30:00,27.3,5.6,30.24,West,264,0.0,2.0,39,0.00,,---,0.00,VWS V14.01,2013-04-07 11:30:00,
2013-04-07 07:33:00,29.7,7.8,30.25,West,264,0.0,0.0,39,0.00,,---,0.00,VWS V14.01,2013-04-07 11:33:00,
2013-04-07 07:38:00,30.0,8.1,30.25,West,264,0.0,0.0,39,0.00,,---,0.00,VWS V14.01,2013-04-07 11:38:00,
2013-04-07 07:43:00,30.4,8.4,30.25,West,264,0.0,0.0,39,0.00,,---,0.00,VWS V14.01,2013-04-07 11:43:00,
2013-04-07 07:48:00,30.9,8.9,30.25,West,264,0.0,0.0,39,0.00,,---,0.00,VWS V14.01,2013-04-07 11:48:00,
2013-04-07 07:53:00,31.3,9.2,30.25,West,264,0.0,0.0,39,0.00,,---,0.00,VWS V14.01,2013-04-07 11:53:00,
2013-04-07 07:58:00,31.9,9.8,30.25,West,264,0.0,0.0,39,0.00,,---,0.00,VWS V14.01,2013-04-07 11:58:00,
2013-04-07 08:00:00,28.1,6.3,30.25,West,264,0.0,0.0,39,0.00,,---,0.00,VWS V14.01,2013-04-07 12:00:00,
2013-04-07 08:03:00,32.4,10.2,30.25,West,264,0.0,0.0,39,0.00,,---,0.00,VWS V14.01,2013-04-07 12:03:00,
2013-04-07 08:08:00,33.1,10.9,30.25,West,264,0.0,0.0,39,0.00,,---,0.00,VWS V14.01,2013-04-07 12:08:00,
2013-04-07 08:13:00,34.0,11.7,30.25,West,264,0.0,0.0,39,0.00,,---,0.00,VWS V14.01,2013-04-07 12:13:00,
2013-04-07 08:18:00,35.2,12.7,30.25,West,264,0.0,0.0,39,0.00,,---,0.00,VWS V14.01,2013-04-07 12:18:00,
2013-04-07 08:23:00,36.0,13.5,30.25,West,264,1.0,2.0,39,0.00,,---,0.00,VWS V14.01,2013-04-07 12:23:00,
2013-04-07 08:28:00,36.6,14.0,30.25,SW,234,2.0,4.0,39,0.00,,---,0.00,VWS V14.01,2013-04-07 12:28:00,
2013-04-07 08:30:00,29.5,7.6,30.25,West,264,0.0,0.0,39,0.00,,---,0.00,VWS V14.01,2013-04-07 12:30:00,
2013-04-07 08:33:00,37.0,14.4,30.25,SW,224,3.0,4.0,39,0.00,,---,0.00,VWS V14.01,2013-04-07 12:33:00,
2013-04-07 08:38:00,37.8,15.1,30.25,SW,224,1.0,4.0,39,0.00,,---,0.00,VWS V14.01,2013-04-07 12:38:00,
2013-04-07 08:43:00,38.8,16.0,30.25,SW,220,4.0,4.0,39,0.00,,---,0.00,VWS V14.01,2013-04-07 12:43:00,
2013-04-07 08:48:00,39.9,16.4,30.24,SW,220,0.0,4.0,38,0.00,,---,0.00,VWS V14.01,2013-04-07 12:48:00,
2013-04-07 08:53:00,40.9,17.3,30.24,SSE,158,3.0,4.0,38,0.00,,---,0.00,VWS V14.01,2013-04-07 12:53:00,
2013-04-07 08:58:00,41.8,18.1,30.24,SSE,167,3.0,5.0,38,0.00,,---,0.00,VWS V14.01,2013-04-07 12:58:00,
2013-04-07 09:00:00,32.4,10.2,30.25,West,264,0.0,0.0,39,0.00,,---,0.00,VWS V14.01,2013-04-07 13:00:00,
2013-04-07 09:03:00,42.5,18.7,30.24,SSW,193,7.0,7.0,38,0.00,,---,0.00,VWS V14.01,2013-04-07 13:03:00,
2013-04-07 09:08:00,42.9,18.4,30.24,SSW,199,4.0,10.0,37,0.00,,---,0.00,VWS V14.01,2013-04-07 13:08:00,
2013-04-07 09:13:00,43.1,18.6,30.24,South,169,10.0,14.0,37,0.00,,---,0.00,VWS V14.01,2013-04-07 13:13:00,
2013-04-07 09:18:00,43.5,19.0,30.24,South,178,7.0,14.0,37,0.00,,---,0.00,VWS V14.01,2013-04-07 13:18:00,
2013-04-07 09:23:00,43.8,19.2,30.24,SW,221,5.0,14.0,37,0.00,,---,0.00,VWS V14.01,2013-04-07 13:23:00,
2013-04-07 09:28:00,43.6,19.1,30.24,SW,232,5.0,14.0,37,0.00,,---,0.00,VWS V14.01,2013-04-07 13:28:00,
2013-04-07 09:30:00,36.9,14.3,30.25,SW,224,2.0,4.0,39,0.00,,---,0.00,VWS V14.01,2013-04-07 13:30:00,
2013-04-07 09:33:00,43.9,19.3,30.23,WSW,251,5.0,11.0,37,0.00,,---,0.00,VWS V14.01,2013-04-07 13:33:00,
2013-04-07 09:38:00,44.1,19.5,30.23,WSW,255,8.0,12.0,37,0.00,,---,0.00,VWS V14.01,2013-04-07 13:38:00,
2013-04-07 09:43:00,44.2,19.0,30.23,SW,226,3.0,13.0,36,0.00,,---,0.00,VWS V14.01,2013-04-07 13:43:00,
2013-04-07 09:48:00,44.3,19.7,30.23,SW,215,2.0,13.0,37,0.00,,---,0.00,VWS V14.01,2013-04-07 13:48:00,
2013-04-07 09:53:00,44.8,19.5,30.23,West,264,4.0,13.0,36,0.00,,---,0.00,VWS V14.01,2013-04-07 13:53:00,
2013-04-07 09:58:00,45.7,20.3,30.23,South,185,2.0,13.0,36,0.00,,---,0.00,VWS V14.01,2013-04-07 13:58:00,
2013-04-07 10:00:00,42.3,18.5,30.24,SSW,193,3.0,6.0,38,0.00,,---,0.00,VWS V14.01,2013-04-07 14:00:00,
2013-04-07 10:03:00,46.2,20.7,30.23,SE,137,6.0,12.0,36,0.00,,---,0.00,VWS V14.01,2013-04-07 14:03:00,
2013-04-07 10:08:00,46.1,20.6,30.23,SW,217,10.0,16.0,36,0.00,,---,0.00,VWS V14.01,2013-04-07 14:08:00,
2013-04-07 10:13:00,46.4,20.9,30.23,SSW,207,6.0,16.0,36,0.00,,---,0.00,VWS V14.01,2013-04-07 14:13:00,
2013-04-07 10:18:00,47.1,21.5,30.22,South,190,14.0,16.0,36,0.00,,---,0.00,VWS V14.01,2013-04-07 14:18:00,
2013-04-07 10:23:00,47.0,21.5,30.22,SSW,195,6.0,16.0,36,0.00,,---,0.00,VWS V14.01,2013-04-07 14:23:00,
2013-04-07 10:28:00,47.3,21.7,30.22,South,177,11.0,18.0,36,0.00,,---,0.00,VWS V14.01,2013-04-07 14:28:00,
2013-04-07 10:30:00,43.9,19.3,30.23,SE,146,6.0,14.0,37,0.00,,---,0.00,VWS V14.01,2013-04-07 14:30:00,
2013-04-07 10:33:00,47.4,21.8,30.22,South,176,10.0,16.0,36,0.00,,---,0.00,VWS V14.01,2013-04-07 14:33:00,
2013-04-07 10:38:00,47.3,21.7,30.22,South,182,14.0,20.0,36,0.00,,---,0.00,VWS V14.01,2013-04-07 14:38:00,
2013-04-07 10:43:00,47.6,22.0,30.22,SE,145,6.0,20.0,36,0.00,,---,0.00,VWS V14.01,2013-04-07 14:43:00,
2013-04-07 10:48:00,47.3,21.7,30.22,South,170,3.0,20.0,36,0.00,,---,0.00,VWS V14.01,2013-04-07 14:48:00,
2013-04-07 10:53:00,47.3,21.7,30.22,SSW,198,10.0,20.0,36,0.00,,---,0.00,VWS V14.01,2013-04-07 14:53:00,
2013-04-07 10:58:00,47.6,21.3,30.22,SSW,213,10.0,20.0,35,0.00,,---,0.00,VWS V14.01,2013-04-07 14:58:00,
2013-04-07 11:00:00,46.1,20.6,30.23,SSW,200,3.0,13.0,36,0.00,,---,0.00,VWS V14.01,2013-04-07 15:00:00,
2013-04-07 11:03:00,47.3,21.0,30.21,SSW,209,6.0,18.0,35,0.00,,---,0.00,VWS V14.01,2013-04-07 15:03:00,
2013-04-07 11:08:00,47.1,20.9,30.21,SSW,205,9.0,18.0,35,0.00,,---,0.00,VWS V14.01,2013-04-07 15:08:00,
2013-04-07 11:13:00,47.1,20.9,30.21,SSW,197,13.0,19.0,35,0.00,,---,0.00,VWS V14.01,2013-04-07 15:13:00,
2013-04-07 11:18:00,47.6,21.3,30.20,SSE,148,4.0,24.0,35,0.00,,---,0.00,VWS V14.01,2013-04-07 15:18:00,
2013-04-07 11:23:00,47.6,21.3,30.20,SSW,203,4.0,25.0,35,0.00,,---,0.00,VWS V14.01,2013-04-07 15:23:00,
2013-04-07 11:28:00,48.8,22.4,30.20,South,184,12.0,25.0,35,0.00,,---,0.00,VWS V14.01,2013-04-07 15:28:00,
2013-04-07 11:30:00,47.4,21.8,30.22,SSW,198,10.0,18.0,36,0.00,,---,0.00,VWS V14.01,2013-04-07 15:30:00,
2013-04-07 11:33:00,49.4,22.9,30.20,SW,224,14.0,16.0,35,0.00,,---,0.00,VWS V14.01,2013-04-07 15:33:00,
2013-04-07 11:38:00,49.4,22.9,30.20,SW,229,7.0,17.0,35,0.00,,---,0.00,VWS V14.01,2013-04-07 15:38:00,
2013-04-07 11:43:00,49.1,22.6,30.20,WSW,240,13.0,21.0,35,0.00,,---,0.00,VWS V14.01,2013-04-07 15:43:00,
2013-04-07 11:48:00,48.9,22.5,30.19,SW,220,10.0,23.0,35,0.00,,---,0.00,VWS V14.01,2013-04-07 15:48:00,
2013-04-07 11:53:00,49.2,22.7,30.19,South,179,16.0,26.0,35,0.00,,---,0.00,VWS V14.01,2013-04-07 15:53:00,
2013-04-07 11:58:00,49.4,22.9,30.19,SW,233,7.0,26.0,35,0.00,,---,0.00,VWS V14.01,2013-04-07 15:58:00,
2013-04-07 12:00:00,47.1,20.9,30.21,South,181,13.0,20.0,35,0.00,,---,0.00,VWS V14.01,2013-04-07 16:00:00,
2013-04-07 12:04:00,49.5,23.0,30.19,SW,214,4.0,20.0,35,0.00,,---,0.00,VWS V14.01,2013-04-07 16:04:00,
2013-04-07 12:09:00,49.6,23.1,30.19,SE,131,14.0,21.0,35,0.00,,---,0.00,VWS V14.01,2013-04-07 16:09:00,
2013-04-07 12:14:00,50.2,23.6,30.19,SW,214,11.0,21.0,35,0.00,,---,0.00,VWS V14.01,2013-04-07 16:14:00,
2013-04-07 12:20:00,49.8,23.3,30.18,SW,223,8.0,21.0,35,0.00,,---,0.00,VWS V14.01,2013-04-07 16:20:00,
2013-04-07 12:25:00,49.6,23.1,30.18,SSE,155,14.0,24.0,35,0.00,,---,0.00,VWS V14.01,2013-04-07 16:25:00,
2013-04-07 12:30:00,49.6,23.1,30.18,SSW,196,16.0,24.0,35,0.00,,---,0.00,VWS V14.01,2013-04-07 16:30:00,
2013-04-07 12:35:00,49.9,23.4,30.17,SSE,161,9.0,21.0,35,0.00,,---,0.00,VWS V14.01,2013-04-07 16:35:00,
2013-04-07 12:40:00,50.7,24.1,30.17,SW,234,16.0,21.0,35,0.00,,---,0.00,VWS V14.01,2013-04-07 16:40:00,
2013-04-07 12:45:00,50.7,24.1,30.17,SSW,203,7.0,21.0,35,0.00,,---,0.00,VWS V14.01,2013-04-07 16:45:00,
2013-04-07 12:50:00,50.8,24.1,30.16,SSW,196,18.0,21.0,35,0.00,,---,0.00,VWS V14.01,2013-04-07 16:50:00,
2013-04-07 12:55:00,50.4,23.8,30.16,SSW,203,12.0,22.0,35,0.00,,---,0.00,VWS V14.01,2013-04-07 16:55:00,
2013-04-07 13:00:00,49.8,23.9,30.16,South,190,3.0,22.0,36,0.00,,---,0.00,VWS V14.01,2013-04-07 17:00:00,
2013-04-07 13:05:00,49.9,24.0,30.15,SSE,155,18.0,24.0,36,0.00,,---,0.00,VWS V14.01,2013-04-07 17:05:00,
2013-04-07 13:10:00,50.1,24.2,30.15,SSW,205,4.0,24.0,36,0.00,,---,0.00,VWS V14.01,2013-04-07 17:10:00,
2013-04-07 13:15:00,50.4,24.5,30.15,SSW,208,7.0,24.0,36,0.00,,---,0.00,VWS V14.01,2013-04-07 17:15:00,
2013-04-07 13:20:00,50.4,24.5,30.14,SW,236,9.0,24.0,36,0.00,,---,0.00,VWS V14.01,2013-04-07 17:20:00,
2013-04-07 13:25:00,50.7,24.7,30.14,SSE,150,9.0,24.0,36,0.00,,---,0.00,VWS V14.01,2013-04-07 17:25:00,
2013-04-07 13:30:00,51.1,25.1,30.14,SSE,156,4.0,24.0,36,0.00,,---,0.00,VWS V14.01,2013-04-07 17:30:00,
2013-04-07 13:35:00,51.3,25.3,30.13,WSW,242,4.0,17.0,36,0.00,,---,0.00,VWS V14.01,2013-04-07 17:35:00,
2013-04-07 13:40:00,50.5,24.6,30.13,SW,232,12.0,22.0,36,0.00,,---,0.00,VWS V14.01,2013-04-07 17:40:00,
2013-04-07 13:45:00,50.5,24.6,30.13,WSW,243,20.0,26.0,36,0.00,,---,0.00,VWS V14.01,2013-04-07 17:45:00,
2013-04-07 13:50:00,50.4,24.5,30.13,SSW,199,7.0,26.0,36,0.00,,---,0.00,VWS V14.01,2013-04-07 17:50:00,
2013-04-07 13:55:00,50.8,24.8,30.13,SSE,159,12.0,26.0,36,0.00,,---,0.00,VWS V14.01,2013-04-07 17:55:00,
2013-04-07 14:00:00,51.6,25.5,30.13,SW,233,7.0,26.0,36,0.00,,---,0.00,VWS V14.01,2013-04-07 18:00:00,
2013-04-07 14:05:00,51.1,25.1,30.12,SSW,203,18.0,27.0,36,0.00,,---,0.00,VWS V14.01,2013-04-07 18:05:00,
2013-04-07 14:10:00,51.1,25.1,30.12,WSW,253,11.0,27.0,36,0.00,,---,0.00,VWS V14.01,2013-04-07 18:10:00,
2013-04-07 14:15:00,51.0,25.0,30.12,SSW,192,17.0,27.0,36,0.00,,---,0.00,VWS V14.01,2013-04-07 18:15:00,
2013-04-07 14:20:00,51.6,25.5,30.11,South,179,12.0,27.0,36,0.00,,---,0.00,VWS V14.01,2013-04-07 18:20:00,
2013-04-07 14:25:00,51.1,25.1,30.11,South,187,7.0,27.0,36,0.00,,---,0.00,VWS V14.01,2013-04-07 18:25:00,
2013-04-07 14:30:00,51.3,25.3,30.11,WSW,243,17.0,27.0,36,0.00,,---,0.00,VWS V14.01,2013-04-07 18:30:00,
2013-04-07 14:35:00,51.0,25.0,30.11,South,185,11.0,22.0,36,0.00,,---,0.00,VWS V14.01,2013-04-07 18:35:00,
2013-04-07 14:40:00,51.3,25.3,30.11,South,175,15.0,25.0,36,0.00,,---,0.00,VWS V14.01,2013-04-07 18:40:00,
2013-04-07 14:45:00,51.1,25.1,30.11,SSE,155,17.0,25.0,36,0.00,,---,0.00,VWS V14.01,2013-04-07 18:45:00,
2013-04-07 14:50:00,51.3,25.3,30.10,SW,225,14.0,25.0,36,0.00,,---,0.00,VWS V14.01,2013-04-07 18:50:00,
2013-04-07 14:55:00,51.3,25.3,30.10,SSW,210,7.0,25.0,36,0.00,,---,0.00,VWS V14.01,2013-04-07 18:55:00,
2013-04-07 15:00:00,52.0,25.9,30.09,SSE,166,14.0,25.0,36,0.00,,---,0.00,VWS V14.01,2013-04-07 19:00:00,
2013-04-07 15:05:00,51.4,25.4,30.09,South,188,11.0,31.0,36,0.00,,---,0.00,VWS V14.01,2013-04-07 19:05:00,
2013-04-07 15:10:00,51.1,25.1,30.09,SSE,148,16.0,31.0,36,0.00,,---,0.00,VWS V14.01,2013-04-07 19:10:00,
2013-04-07 15:16:00,51.1,25.1,30.08,SW,216,16.0,31.0,36,0.00,,---,0.00,VWS V14.01,2013-04-07 19:16:00,
2013-04-07 15:21:00,51.7,25.6,30.08,SW,224,10.0,31.0,36,0.00,,---,0.00,VWS V14.01,2013-04-07 19:21:00,
2013-04-07 15:26:00,51.4,25.4,30.08,West,272,14.0,31.0,36,0.00,,---,0.00,VWS V14.01,2013-04-07 19:26:00,
2013-04-07 15:30:00,51.1,25.1,30.11,SSE,165,6.0,27.0,36,0.00,,---,0.00,VWS V14.01,2013-04-07 19:30:00,
2013-04-07 15:31:00,51.3,25.3,30.07,WSW,240,13.0,31.0,36,0.00,,---,0.00,VWS V14.01,2013-04-07 19:31:00,
2013-04-07 15:36:00,51.4,25.4,30.07,South,178,9.0,25.0,36,0.00,,---,0.00,VWS V14.01,2013-04-07 19:36:00,
2013-04-07 15:41:00,51.6,25.5,30.07,SW,217,16.0,25.0,36,0.00,,---,0.00,VWS V14.01,2013-04-07 19:41:00,
2013-04-07 15:46:00,51.3,25.3,30.07,WSW,243,11.0,25.0,36,0.00,,---,0.00,VWS V14.01,2013-04-07 19:46:00,
2013-04-07 15:51:00,51.7,25.6,30.07,SW,225,12.0,25.0,36,0.00,,---,0.00,VWS V14.01,2013-04-07 19:51:00,
2013-04-07 15:56:00,51.4,25.4,30.07,SSW,210,15.0,25.0,36,0.00,,---,0.00,VWS V14.01,2013-04-07 19:56:00,
2013-04-07 16:00:00,52.0,25.9,30.09,South,187,23.0,25.0,36,0.00,,---,0.00,VWS V14.01,2013-04-07 20:00:00,
2013-04-07 16:01:00,51.6,25.5,30.06,SSW,195,13.0,25.0,36,0.00,,---,0.00,VWS V14.01,2013-04-07 20:01:00,
2013-04-07 16:06:00,51.7,25.6,30.06,SW,235,13.0,14.0,36,0.00,,---,0.00,VWS V14.01,2013-04-07 20:06:00,
2013-04-07 16:11:00,51.6,25.5,30.06,South,184,9.0,15.0,36,0.00,,---,0.00,VWS V14.01,2013-04-07 20:11:00,
2013-04-07 16:16:00,51.1,25.1,30.05,South,184,15.0,24.0,36,0.00,,---,0.00,VWS V14.01,2013-04-07 20:16:00,
2013-04-07 16:21:00,50.4,25.1,30.05,SSE,153,11.0,26.0,37,0.00,,---,0.00,VWS V14.01,2013-04-07 20:21:00,
2013-04-07 16:26:00,50.4,25.1,30.05,SSW,210,9.0,26.0,37,0.00,,---,0.00,VWS V14.01,2013-04-07 20:26:00,
2013-04-07 16:30:00,51.4,25.4,30.07,SW,229,12.0,31.0,36,0.00,,---,0.00,VWS V14.01,2013-04-07 20:30:00,
2013-04-07 16:31:00,50.7,25.4,30.05,WSW,245,3.0,26.0,37,0.00,,---,0.00,VWS V14.01,2013-04-07 20:31:00,
2013-04-07 16:36:00,50.1,24.9,30.05,South,187,14.0,30.0,37,0.00,,---,0.00,VWS V14.01,2013-04-07 20:36:00,
2013-04-07 16:41:00,50.4,25.1,30.05,SW,218,17.0,30.0,37,0.00,,---,0.00,VWS V14.01,2013-04-07 20:41:00,
2013-04-07 16:46:00,50.4,25.1,30.04,South,185,13.0,30.0,37,0.00,,---,0.00,VWS V14.01,2013-04-07 20:46:00,
2013-04-07 16:51:00,50.4,25.1,30.04,South,173,10.0,30.0,37,0.00,,---,0.00,VWS V14.01,2013-04-07 20:51:00,
2013-04-07 16:56:00,50.5,25.2,30.04,SW,219,15.0,30.0,37,0.00,,---,0.00,VWS V14.01,2013-04-07 20:56:00,
2013-04-07 17:00:00,51.4,25.4,30.06,South,188,6.0,25.0,36,0.00,,---,0.00,VWS V14.01,2013-04-07 21:00:00,
2013-04-07 17:01:00,50.2,25.0,30.04,South,191,16.0,30.0,37,0.00,,---,0.00,VWS V14.01,2013-04-07 21:01:00,
2013-04-07 17:06:00,49.9,24.7,30.04,SE,146,13.0,20.0,37,0.00,,---,0.00,VWS V14.01,2013-04-07 21:06:00,
2013-04-07 17:11:00,50.2,25.0,30.04,SW,232,7.0,20.0,37,0.00,,---,0.00,VWS V14.01,2013-04-07 21:11:00,
2013-04-07 17:16:00,50.2,25.0,30.02,WSW,239,9.0,23.0,37,0.00,,---,0.00,VWS V14.01,2013-04-07 21:16:00,
2013-04-07 17:21:00,50.2,25.0,30.02,SSW,196,16.0,25.0,37,0.00,,---,0.00,VWS V14.01,2013-04-07 21:21:00,
2013-04-07 17:26:00,49.9,24.7,30.02,SSE,166,11.0,26.0,37,0.00,,---,0.00,VWS V14.01,2013-04-07 21:26:00,
2013-04-07 17:30:00,50.7,25.4,30.05,South,173,7.0,26.0,37,0.00,,---,0.00,VWS V14.01,2013-04-07 21:30:00,
2013-04-07 17:31:00,49.8,24.6,30.02,SW,221,16.0,17.0,37,0.00,,---,0.00,VWS V14.01,2013-04-07 21:31:00,
2013-04-07 17:37:00,49.6,24.4,30.02,SW,226,10.0,23.0,37,0.00,,---,0.00,VWS V14.01,2013-04-07 21:37:00,
2013-04-07 17:42:00,49.6,24.4,30.02,SW,220,9.0,23.0,37,0.00,,---,0.00,VWS V14.01,2013-04-07 21:42:00,
2013-04-07 17:47:00,49.4,24.2,30.02,SW,224,6.0,23.0,37,0.00,,---,0.00,VWS V14.01,2013-04-07 21:47:00,
2013-04-07 17:52:00,49.4,24.2,30.02,SSW,195,13.0,23.0,37,0.00,,---,0.00,VWS V14.01,2013-04-07 21:52:00,
2013-04-07 17:57:00,49.2,24.1,30.02,SSW,208,3.0,23.0,37,0.00,,---,0.00,VWS V14.01,2013-04-07 21:57:00,
2013-04-07 18:00:00,50.2,25.0,30.04,SSW,205,16.0,30.0,37,0.00,,---,0.00,VWS V14.01,2013-04-07 22:00:00,
2013-04-07 18:02:00,49.2,24.1,30.03,South,182,3.0,5.0,37,0.00,,---,0.00,VWS V14.01,2013-04-07 22:02:00,
2013-04-07 18:07:00,49.1,24.0,30.03,SW,235,13.0,16.0,37,0.00,,---,0.00,VWS V14.01,2013-04-07 22:07:00,
2013-04-07 18:12:00,48.9,23.8,30.03,SSW,205,4.0,16.0,37,0.00,,---,0.00,VWS V14.01,2013-04-07 22:12:00,
2013-04-07 18:17:00,48.8,23.7,30.02,South,187,6.0,16.0,37,0.00,,---,0.00,VWS V14.01,2013-04-07 22:17:00,
2013-04-07 18:22:00,48.6,23.5,30.02,South,188,10.0,18.0,37,0.00,,---,0.00,VWS V14.01,2013-04-07 22:22:00,
2013-04-07 18:27:00,48.5,23.4,30.02,South,189,5.0,23.0,37,0.00,,---,0.00,VWS V14.01,2013-04-07 22:27:00,
2013-04-07 18:30:00,49.8,24.6,30.02,SW,217,11.0,26.0,37,0.00,,---,0.00,VWS V14.01,2013-04-07 22:30:00,
2013-04-07 18:32:00,48.3,23.3,30.00,WSW,240,4.0,13.0,37,0.00,,---,0.00,VWS V14.01,2013-04-07 22:32:00,
2013-04-07 18:37:00,48.3,23.3,30.00,WSW,238,10.0,17.0,37,0.00,,---,0.00,VWS V14.01,2013-04-07 22:37:00,
2013-04-07 18:42:00,48.2,23.2,30.00,SW,219,10.0,17.0,37,0.00,,---,0.00,VWS V14.01,2013-04-07 22:42:00,
2013-04-07 18:47:00,48.2,23.2,30.01,SSW,199,4.0,17.0,37,0.00,,---,0.00,VWS V14.01,2013-04-07 22:47:00,
2013-04-07 18:52:00,48.0,23.0,30.01,SSW,204,3.0,17.0,37,0.00,,---,0.00,VWS V14.01,2013-04-07 22:52:00,
2013-04-07 18:57:00,47.9,22.9,30.01,SSW,211,6.0,17.0,37,0.00,,---,0.00,VWS V14.01,2013-04-07 22:57:00,
2013-04-07 19:00:00,49.2,24.1,30.03,SSE,166,4.0,23.0,37,0.00,,---,0.00,VWS V14.01,2013-04-07 23:00:00,
2013-04-07 19:02:00,47.7,22.7,30.01,SSE,166,6.0,10.0,37,0.00,,---,0.00,VWS V14.01,2013-04-07 23:02:00,
2013-04-07 19:08:00,47.6,22.6,30.01,South,185,8.0,12.0,37,0.00,,---,0.00,VWS V14.01,2013-04-07 23:08:00,
2013-04-07 19:13:00,47.6,22.6,30.01,SSW,192,5.0,16.0,37,0.00,,---,0.00,VWS V14.01,2013-04-07 23:13:00,
2013-04-07 19:18:00,47.4,22.5,30.01,South,185,5.0,16.0,37,0.00,,---,0.00,VWS V14.01,2013-04-07 23:18:00,
2013-04-07 19:23:00,47.4,22.5,30.01,SW,233,3.0,16.0,37,0.00,,---,0.00,VWS V14.01,2013-04-07 23:23:00,
2013-04-07 19:28:00,47.4,22.5,30.01,WSW,241,6.0,16.0,37,0.00,,---,0.00,VWS V14.01,2013-04-07 23:28:00,
2013-04-07 19:30:00,48.5,23.4,30.00,SSW,200,7.0,23.0,37,0.00,,---,0.00,VWS V14.01,2013-04-07 23:30:00,
2013-04-07 19:33:00,47.4,22.5,30.01,SW,218,5.0,7.0,37,0.00,,---,0.00,VWS V14.01,2013-04-07 23:33:00,
2013-04-07 19:38:00,47.6,22.6,30.01,South,182,6.0,13.0,37,0.00,,---,0.00,VWS V14.01,2013-04-07 23:38:00,
2013-04-07 19:43:00,47.4,22.5,30.01,South,184,8.0,13.0,37,0.00,,---,0.00,VWS V14.01,2013-04-07 23:43:00,
2013-04-07 19:48:00,47.4,22.5,30.00,SW,236,4.0,14.0,37,0.00,,---,0.00,VWS V14.01,2013-04-07 23:48:00,
2013-04-07 19:53:00,47.4,22.5,30.00,SSW,193,5.0,14.0,37,0.00,,---,0.00,VWS V14.01,2013-04-07 23:53:00,
2013-04-07 19:58:00,47.4,22.5,30.00,South,189,3.0,14.0,37,0.00,,---,0.00,VWS V14.01,2013-04-07 23:58:00,
2013-04-07 20:00:00,47.7,22.7,30.01,SSW,212,8.0,17.0,37,0.00,,---,0.00,VWS V14.01,2013-04-08 00:00:00,
2013-04-07 20:03:00,47.3,23.0,30.01,WSW,248,5.0,7.0,38,0.00,,---,0.00,VWS V14.01,2013-04-08 00:03:00,
2013-04-07 20:08:00,47.3,23.0,30.01,SSW,208,2.0,11.0,38,0.00,,---,0.00,VWS V14.01,2013-04-08 00:08:00,
2013-04-07 20:13:00,47.1,22.8,30.01,SSW,193,7.0,15.0,38,0.00,,---,0.00,VWS V14.01,2013-04-08 00:13:00,
2013-04-07 20:18:00,47.0,22.7,30.00,SW,225,2.0,15.0,38,0.00,,---,0.00,VWS V14.01,2013-04-08 00:18:00,
2013-04-07 20:23:00,47.0,22.7,30.00,SSW,212,3.0,15.0,38,0.00,,---,0.00,VWS V14.01,2013-04-08 00:23:00,
2013-04-07 20:28:00,47.0,22.7,30.00,WSW,250,5.0,15.0,38,0.00,,---,0.00,VWS V14.01,2013-04-08 00:28:00,
2013-04-07 20:30:00,47.4,22.5,30.01,SW,227,7.0,16.0,37,0.00,,---,0.00,VWS V14.01,2013-04-08 00:30:00,
2013-04-07 20:33:00,47.0,22.7,30.00,South,172,2.0,11.0,38,0.00,,---,0.00,VWS V14.01,2013-04-08 00:33:00,
2013-04-07 20:38:00,47.0,22.7,30.00,South,184,5.0,11.0,38,0.00,,---,0.00,VWS V14.01,2013-04-08 00:38:00,
2013-04-07 20:43:00,47.0,22.7,30.00,SSW,198,3.0,13.0,38,0.00,,---,0.00,VWS V14.01,2013-04-08 00:43:00,
2013-04-07 20:48:00,47.1,22.8,30.00,SSW,210,6.0,14.0,38,0.00,,---,0.00,VWS V14.01,2013-04-08 00:48:00,
2013-04-07 20:53:00,47.1,22.8,30.00,SW,216,5.0,14.0,38,0.00,,---,0.00,VWS V14.01,2013-04-08 00:53:00,
2013-04-07 20:58:00,47.3,23.0,30.00,SW,223,5.0,19.0,38,0.00,,---,0.00,VWS V14.01,2013-04-08 00:58:00,
2013-04-07 21:00:00,47.4,23.1,30.01,SSW,195,7.0,14.0,38,0.00,,---,0.00,VWS V14.01,2013-04-08 01:00:00,
2013-04-07 21:03:00,47.3,23.0,30.00,WSW,237,2.0,9.0,38,0.00,,---,0.00,VWS V14.01,2013-04-08 01:03:00,
2013-04-07 21:08:00,47.4,23.1,30.00,SW,221,12.0,15.0,38,0.00,,---,0.00,VWS V14.01,2013-04-08 01:08:00,
2013-04-07 21:13:00,47.6,23.3,30.00,WSW,239,10.0,19.0,38,0.00,,---,0.00,VWS V14.01,2013-04-08 01:13:00,
2013-04-07 21:18:00,47.6,23.3,30.00,WSW,257,4.0,19.0,38,0.00,,---,0.00,VWS V14.01,2013-04-08 01:18:00,
2013-04-07 21:23:00,47.6,23.3,30.00,SW,223,12.0,19.0,38,0.00,,---,0.00,VWS V14.01,2013-04-08 01:23:00,
2013-04-07 21:28:00,47.6,23.3,30.00,SSE,161,7.0,19.0,38,0.00,,---,0.00,VWS V14.01,2013-04-08 01:28:00,
2013-04-07 21:30:00,47.0,22.7,30.00,WSW,243,2.0,15.0,38,0.00,,---,0.00,VWS V14.01,2013-04-08 01:30:00,
2013-04-07 21:33:00,47.4,23.1,29.99,SSW,204,6.0,11.0,38,0.00,,---,0.00,VWS V14.01,2013-04-08 01:33:00,
2013-04-07 21:38:00,47.4,23.1,29.99,SW,226,11.0,16.0,38,0.00,,---,0.00,VWS V14.01,2013-04-08 01:38:00,
2013-04-07 21:43:00,47.4,23.1,29.99,SSW,196,10.0,19.0,38,0.00,,---,0.00,VWS V14.01,2013-04-08 01:43:00,
2013-04-07 21:48:00,47.4,23.1,29.99,SSW,200,13.0,19.0,38,0.00,,---,0.00,VWS V14.01,2013-04-08 01:48:00,
2013-04-07 21:53:00,47.4,23.1,29.99,SW,214,6.0,19.0,38,0.00,,---,0.00,VWS V14.01,2013-04-08 01:53:00,
2013-04-07 21:58:00,47.4,23.1,29.99,SW,233,6.0,19.0,38,0.00,,---,0.00,VWS V14.01,2013-04-08 01:58:00,
2013-04-07 22:00:00,47.3,23.0,30.00,West,259,5.0,19.0,38,0.00,,---,0.00,VWS V14.01,2013-04-08 02:00:00,
2013-04-07 22:03:00,47.4,23.1,29.99,WSW,241,7.0,15.0,38,0.00,,---,0.00,VWS V14.01,2013-04-08 02:03:00,
2013-04-07 22:08:00,47.4,23.1,29.99,WNW,302,4.0,15.0,38,0.00,,---,0.00,VWS V14.01,2013-04-08 02:08:00,
2013-04-07 22:13:00,47.3,23.0,29.99,SW,224,9.0,15.0,38,0.00,,---,0.00,VWS V14.01,2013-04-08 02:13:00,
2013-04-07 22:18:00,47.3,23.0,29.99,SW,233,4.0,15.0,38,0.00,,---,0.00,VWS V14.01,2013-04-08 02:18:00,
2013-04-07 22:23:00,47.3,23.0,29.99,WSW,249,5.0,15.0,38,0.00,,---,0.00,VWS V14.01,2013-04-08 02:23:00,
2013-04-07 22:28:00,47.3,23.0,29.99,SW,218,3.0,16.0,38,0.00,,---,0.00,VWS V14.01,2013-04-08 02:28:00,
2013-04-07 22:30:00,47.4,23.1,29.99,SSW,193,9.0,19.0,38,0.00,,---,0.00,VWS V14.01,2013-04-08 02:30:00,
2013-04-07 22:33:00,47.3,23.0,29.97,West,264,1.0,6.0,38,0.00,,---,0.00,VWS V14.01,2013-04-08 02:33:00,
2013-04-07 22:38:00,47.1,22.8,29.97,SW,226,9.0,12.0,38,0.00,,---,0.00,VWS V14.01,2013-04-08 02:38:00,
2013-04-07 22:44:00,47.1,22.8,29.97,SW,234,5.0,12.0,38,0.00,,---,0.00,VWS V14.01,2013-04-08 02:44:00,
2013-04-07 22:49:00,47.1,22.8,29.97,SW,232,3.0,12.0,38,0.00,,---,0.00,VWS V14.01,2013-04-08 02:49:00,
2013-04-07 22:54:00,47.1,23.4,29.97,SW,231,4.0,12.0,39,0.00,,---,0.00,VWS V14.01,2013-04-08 02:54:00,
2013-04-07 22:59:00,47.1,23.4,29.97,WSW,247,6.0,12.0,39,0.00,,---,0.00,VWS V14.01,2013-04-08 02:59:00,
2013-04-07 23:00:00,47.4,23.1,29.99,WSW,241,7.0,19.0,38,0.00,,---,0.00,VWS V14.01,2013-04-08 03:00:00,
2013-04-07 23:04:00,47.1,23.4,29.98,WSW,237,3.0,12.0,39,0.00,,---,0.00,VWS V14.01,2013-04-08 03:04:00,
2013-04-07 23:09:00,47.3,23.6,29.98,SW,219,3.0,12.0,39,0.00,,---,0.00,VWS V14.01,2013-04-08 03:09:00,
2013-04-07 23:14:00,47.3,23.6,29.98,SSW,207,4.0,16.0,39,0.00,,---,0.00,VWS V14.01,2013-04-08 03:14:00,
2013-04-07 23:19:00,47.3,23.6,29.97,WSW,248,9.0,16.0,39,0.00,,---,0.00,VWS V14.01,2013-04-08 03:19:00,
2013-04-07 23:24:00,47.3,23.6,29.97,WSW,254,4.0,16.0,39,0.00,,---,0.00,VWS V14.01,2013-04-08 03:24:00,
2013-04-07 23:29:00,47.3,23.6,29.97,SW,215,5.0,16.0,39,0.00,,---,0.00,VWS V14.01,2013-04-08 03:29:00,
2013-04-07 23:30:00,47.3,23.0,29.97,West,263,6.0,16.0,38,0.00,,---,0.00,VWS V14.01,2013-04-08 03:30:00,
2013-04-07 23:34:00,47.3,23.6,29.97,WSW,251,3.0,10.0,39,0.00,,---,0.00,VWS V14.01,2013-04-08 03:34:00,
2013-04-07 23:39:00,47.3,23.6,29.97,WSW,243,5.0,10.0,39,0.00,,---,0.00,VWS V14.01,2013-04-08 03:39:00,
2013-04-07 23:45:00,47.1,23.4,29.97,SW,215,0.0,11.0,39,0.00,,---,0.00,VWS V14.01,2013-04-08 03:45:00,
2013-04-07 23:50:00,47.1,23.4,29.97,SW,219,10.0,11.0,39,0.00,,---,0.00,VWS V14.01,2013-04-08 03:50:00,
2013-04-07 23:55:00,47.1,23.4,29.97,SW,235,9.0,15.0,39,0.00,,---,0.00,VWS V14.01,2013-04-08 03:55:00,